This is the latest recevied weather packets stored in our database for station/object DG6HD-13. If no packets are shown the sender has not sent any weather packets the latest 10 day(s).
| Time | Temp. | Humidity | Pressure | Rain* | Wind** | Luminosity | Snow |
|---|---|---|---|---|---|---|---|
| 1778327330 | 18.89° C | 36% | 1022 hPa | - | - | - | - |
| 1778326429 | 17.22° C | 38% | 1022.1 hPa | - | - | - | - |
| 1778325529 | 18.89° C | 36% | 1022.2 hPa | - | - | - | - |
| 1778324628 | 18.89° C | 36% | 1022.2 hPa | - | - | - | - |
| 1778323727 | 18.33° C | 36% | 1022.2 hPa | - | - | - | - |
| 1778322826 | 18.33° C | 37% | 1022.4 hPa | - | - | - | - |
| 1778321925 | 17.78° C | 38% | 1022.2 hPa | - | - | - | - |
| 1778321024 | 17.22° C | 39% | 1022.5 hPa | - | - | - | - |
| 1778320124 | 16.67° C | 41% | 1022.5 hPa | - | - | - | - |
| 1778319223 | 16.11° C | 44% | 1022.6 hPa | - | - | - | - |
| 1778318322 | 15.56° C | 45% | 1022.5 hPa | - | - | - | - |
| 1778317421 | 15.56° C | 45% | 1022.6 hPa | - | - | - | - |
| 1778316520 | 15° C | 46% | 1022.7 hPa | - | - | - | - |
| 1778315619 | 14.44° C | 47% | 1022.8 hPa | - | - | - | - |
| 1778314719 | 13.33° C | 49% | 1022.8 hPa | - | - | - | - |
| 1778313818 | 13.33° C | 49% | 1022.8 hPa | - | - | - | - |
| 1778312917 | 12.22° C | 51% | 1022.9 hPa | - | - | - | - |
| 1778312016 | 11.11° C | 52% | 1022.9 hPa | - | - | - | - |
| 1778311115 | 11.11° C | 53% | 1023 hPa | - | - | - | - |
| 1778310214 | 10° C | 53% | 1022.9 hPa | - | - | - | - |
| 1778309314 | 9.44° C | 54% | 1022.9 hPa | - | - | - | - |
| 1778308413 | 9.44° C | 55% | 1023 hPa | - | - | - | - |
| 1778307512 | 8.89° C | 54% | 1022.9 hPa | - | - | - | - |
| 1778306611 | 8.89° C | 53% | 1022.9 hPa | - | - | - | - |
| 1778305710 | 8.89° C | 48% | 1022.8 hPa | - | - | - | - |
* Rain since midnight (hover to see other rain measurements)
** Current wind speed in m/s (hover to see current wind gust speed)